Regional Weather Roundup
Issued by NWS

Home | Current Version | Previous Version | Graphics & Text | Print | Product List | Glossary On
Versions: 1 2 3 4 5 6 7 8 9 10 11 12 13 14 15 16 17 18 19 20 21 22 23 24 25 26 27 28 29 30 31 32 33 34 35 36 37 38 39 40 41 42 43 44 45 46 47 48 49 50
683
ASUS43 KFSD 171302
RWRSD

WEATHER ROUNDUP FOR SOUTH DAKOTA
NATIONAL WEATHER SERVICE SIOUX FALLS SD
800 AM CDT TUE OCT 17 2017

NOTE: "FAIR" INDICATES FEW OR NO CLOUDS BELOW 12,000 FEET WITH NO
SIGNIFICANT WEATHER AND/OR OBSTRUCTIONS TO VISIBILITY.


SDZ001>005-009-010-012>017-171400-
NORTHWEST AND NORTH CENTRAL SOUTH DAKOTA

CITY           SKY/WX    TMP DP  RH WIND       PRES   REMARKS
BUFFALO          N/A     46  24  42 W7        29.94F
FAITH            N/A     47  27  45 SW8       30.00S
MOBRIDGE       CLOUDY    40  34  79 SE6       29.96S
$$

SDZ012>016-024>037-041>051-057-063-072>074-171400-
SOUTHWEST AND SOUTH CENTRAL SOUTH DAKOTA

CITY           SKY/WX    TMP DP  RH WIND       PRES   REMARKS
RAPID CTY ARPT CLEAR     46  23  40 W8        30.06S
PIERRE         CLEAR     40  33  76 SW3       30.01F
CUSTER         CLOUDY    34  20  56 W5        30.16S WCI  30
PHILIP         CLEAR     40  33  76 W9        30.03F
PINE RIDGE     CLOUDY    28  26  92 NW3       30.11S
SPEARFISH      FAIR      46  21  36 CALM      30.07S
WINNER         FAIR      48  34  58 SW12      30.05F
$$

SDZ004>011-016>023-039-040-171400-
NORTHEAST SOUTH DAKOTA

CITY           SKY/WX    TMP DP  RH WIND       PRES   REMARKS
ABERDEEN       CLOUDY    30  30 100 S5        29.99F WCI  25
WATERTOWN      CLOUDY    36  36 100 CALM      30.00F
BROOKINGS      CLEAR     38  35  89 SE6       30.03S
SISSETON         N/A     43  36  76 CALM      29.96S
$$

SDZ017-020-022-023-036>040-048>070-171400-
SOUTHEAST SOUTH DAKOTA

CITY           SKY/WX    TMP DP  RH WIND       PRES   REMARKS
SIOUX FALLS    PTCLDY    38  37  97 CALM      30.04S
HURON          CLEAR     38  36  92 S3        30.01F
MITCHELL       CLEAR     41  37  86 SW5       30.03S
YANKTON        CLEAR     40  38  93 W3        30.05S
$$

ABBREVIATIONS USED IN REMARKS
   TC - TEMPERATURE IN CELSIUS
  WCI - WIND CHILL INDEX
   HX - HEAT INDEX
  VSB - VISIBILITY





USA.gov is the U.S. government's official web portal to all federal, state and local government web resources and services.